Time,TemperatureF,DewpointF,PressureIn,WindDirection,WindDirectionDegrees,WindSpeedMPH,WindSpeedGustMPH,Humidity,HourlyPrecipIn,Conditions,Clouds,dailyrainin,SoftwareType,DateUTC
2013-01-22 00:09:00,28.9,17.0,30.23,East,82,0.0,2.0,62,0.00,,,0.00,weatherlink.com 1.10,2013-01-22 05:09:00,
2013-01-22 00:24:00,28.6,17.0,30.23,SSE,161,0.0,2.0,61,0.00,,,0.00,weatherlink.com 1.10,2013-01-22 05:24:00,
2013-01-22 00:39:00,28.8,17.0,30.23,East,95,0.0,3.0,62,0.00,,,0.00,weatherlink.com 1.10,2013-01-22 05:39:00,
2013-01-22 00:54:00,28.7,17.0,30.24,NW,304,0.0,2.0,63,0.00,,,0.00,weatherlink.com 1.10,2013-01-22 05:54:00,
2013-01-22 01:24:00,27.5,17.0,30.24,NW,305,0.0,0.0,66,0.00,,,0.00,weatherlink.com 1.10,2013-01-22 06:24:00,
2013-01-22 01:39:00,27.1,16.0,30.24,South,180,0.0,2.0,62,0.00,,,0.00,weatherlink.com 1.10,2013-01-22 06:39:00,
2013-01-22 01:54:00,27.1,16.0,30.24,South,180,0.0,0.0,62,0.00,,,0.00,weatherlink.com 1.10,2013-01-22 06:54:00,
2013-01-22 02:09:00,26.7,15.0,30.24,South,180,0.0,1.0,62,0.00,,,0.00,weatherlink.com 1.10,2013-01-22 07:09:00,
2013-01-22 02:24:00,26.3,16.0,30.24,South,180,0.0,0.0,66,0.00,,,0.00,weatherlink.com 1.10,2013-01-22 07:24:00,
2013-01-22 02:39:00,25.8,18.0,30.25,South,179,0.0,0.0,71,0.00,,,0.00,weatherlink.com 1.10,2013-01-22 07:39:00,
2013-01-22 02:54:00,25.7,17.0,30.24,WSW,246,0.0,0.0,70,0.00,,,0.00,weatherlink.com 1.10,2013-01-22 07:54:00,
2013-01-22 03:09:00,25.2,16.0,30.25,WSW,246,0.0,1.0,69,0.00,,,0.00,weatherlink.com 1.10,2013-01-22 08:09:00,
2013-01-22 03:24:00,25.0,18.0,30.25,WSW,246,0.0,0.0,74,0.00,,,0.00,weatherlink.com 1.10,2013-01-22 08:24:00,
2013-01-22 03:39:00,24.5,17.0,30.25,WSW,246,0.0,0.0,74,0.00,,,0.00,weatherlink.com 1.10,2013-01-22 08:39:00,
2013-01-22 03:55:00,24.2,17.0,30.25,WSW,246,0.0,0.0,75,0.00,,,0.00,weatherlink.com 1.10,2013-01-22 08:55:00,
2013-01-22 04:10:00,24.0,17.0,30.25,WSW,246,0.0,0.0,74,0.00,,,0.00,weatherlink.com 1.10,2013-01-22 09:10:00,
2013-01-22 04:25:00,23.8,17.0,30.25,WSW,247,0.0,0.0,74,0.00,,,0.00,weatherlink.com 1.10,2013-01-22 09:25:00,
2013-01-22 04:40:00,23.8,15.0,30.26,NW,313,0.0,2.0,70,0.00,,,0.00,weatherlink.com 1.10,2013-01-22 09:40:00,
2013-01-22 04:55:00,24.7,14.0,30.26,NW,313,0.0,2.0,65,0.00,,,0.00,weatherlink.com 1.10,2013-01-22 09:55:00,
2013-01-22 05:10:00,25.2,13.0,30.26,South,187,2.0,5.0,61,0.00,,,0.00,weatherlink.com 1.10,2013-01-22 10:10:00,
2013-01-22 05:25:00,25.5,14.0,30.27,SW,221,0.0,1.0,62,0.00,,,0.00,weatherlink.com 1.10,2013-01-22 10:25:00,
2013-01-22 05:40:00,25.4,14.0,30.27,NNW,337,0.0,3.0,61,0.00,,,0.00,weatherlink.com 1.10,2013-01-22 10:40:00,
2013-01-22 05:55:00,25.5,14.0,30.28,West,267,0.0,2.0,61,0.00,,,0.00,weatherlink.com 1.10,2013-01-22 10:55:00,
2013-01-22 06:10:00,25.8,12.0,30.29,West,265,1.0,4.0,57,0.00,,,0.00,weatherlink.com 1.10,2013-01-22 11:10:00,
2013-01-22 06:25:00,26.0,12.0,30.29,NW,317,1.0,4.0,56,0.00,,,0.00,weatherlink.com 1.10,2013-01-22 11:25:00,
2013-01-22 06:43:00,25.9,11.0,30.29,NW,325,0.0,3.0,54,0.00,,,0.00,weatherlink.com 1.10,2013-01-22 11:43:00,
2013-01-22 06:55:00,25.8,12.0,30.30,NNW,329,0.0,3.0,55,0.00,,,0.00,weatherlink.com 1.10,2013-01-22 11:55:00,
2013-01-22 07:25:00,24.9,10.0,30.31,NNW,348,2.0,5.0,54,0.00,,,0.00,weatherlink.com 1.10,2013-01-22 12:25:00,
2013-01-22 07:40:00,24.5,11.0,30.31,NW,304,0.0,1.0,57,0.00,,,0.00,weatherlink.com 1.10,2013-01-22 12:40:00,
2013-01-22 07:55:00,24.1,11.0,30.32,NW,306,2.0,4.0,57,0.00,,,0.00,weatherlink.com 1.10,2013-01-22 12:55:00,
2013-01-22 08:10:00,24.0,10.0,30.33,NW,318,0.0,4.0,56,0.00,,,0.00,weatherlink.com 1.10,2013-01-22 13:10:00,
2013-01-22 08:25:00,24.0,11.0,30.32,SE,128,0.0,5.0,58,0.00,,,0.00,weatherlink.com 1.10,2013-01-22 13:25:00,
2013-01-22 08:40:00,24.2,10.0,30.33,SE,129,0.0,3.0,54,0.00,,,0.00,weatherlink.com 1.10,2013-01-22 13:40:00,
2013-01-22 08:55:00,24.5,10.0,30.33,WNW,303,0.0,3.0,54,0.00,,,0.00,weatherlink.com 1.10,2013-01-22 13:55:00,
2013-01-22 09:25:00,28.9,11.0,30.35,NW,308,1.0,6.0,47,0.00,,,0.00,weatherlink.com 1.10,2013-01-22 14:25:00,
2013-01-22 09:55:00,31.6,11.0,30.36,SSE,167,1.0,4.0,42,0.00,,,0.00,weatherlink.com 1.10,2013-01-22 14:55:00,
2013-01-22 10:25:00,32.4,10.0,30.37,WSW,240,1.0,6.0,40,0.00,,,0.00,weatherlink.com 1.10,2013-01-22 15:25:00,
2013-01-22 10:40:00,32.2,10.0,30.38,NW,321,3.0,7.0,40,0.00,,,0.00,weatherlink.com 1.10,2013-01-22 15:40:00,
2013-01-22 11:10:00,31.8,10.0,30.38,SW,215,1.0,6.0,41,0.00,,,0.00,weatherlink.com 1.10,2013-01-22 16:10:00,
2013-01-22 11:26:00,33.6,11.0,30.38,South,191,0.0,5.0,39,0.00,,,0.00,weatherlink.com 1.10,2013-01-22 16:26:00,
2013-01-22 11:41:00,34.1,10.0,30.37,ESE,114,0.0,6.0,37,0.00,,,0.00,weatherlink.com 1.10,2013-01-22 16:41:00,
2013-01-22 11:56:00,34.3,10.0,30.36,WNW,286,1.0,6.0,36,0.00,,,0.00,weatherlink.com 1.10,2013-01-22 16:56:00,
2013-01-22 12:11:00,35.2,12.0,30.35,SE,142,1.0,5.0,38,0.00,,,0.00,weatherlink.com 1.10,2013-01-22 17:11:00,
2013-01-22 12:26:00,35.9,12.0,30.34,SSE,152,0.0,3.0,38,0.00,,,0.00,weatherlink.com 1.10,2013-01-22 17:26:00,
2013-01-22 12:41:00,35.6,12.0,30.33,ESE,105,1.0,7.0,37,0.00,,,0.00,weatherlink.com 1.10,2013-01-22 17:41:00,
2013-01-22 12:56:00,36.1,11.0,30.32,North,360,0.0,7.0,36,0.00,,,0.00,weatherlink.com 1.10,2013-01-22 17:56:00,
2013-01-22 13:26:00,36.1,12.0,30.30,SE,128,5.0,6.0,37,0.00,,,0.00,weatherlink.com 1.10,2013-01-22 18:26:00,
2013-01-22 13:41:00,36.3,13.0,30.29,SE,146,1.0,6.0,38,0.00,,,0.00,weatherlink.com 1.10,2013-01-22 18:41:00,
2013-01-22 13:56:00,37.0,12.0,30.29,ESE,108,3.0,5.0,36,0.00,,,0.00,weatherlink.com 1.10,2013-01-22 18:56:00,
2013-01-22 14:11:00,36.8,13.0,30.29,ESE,102,2.0,6.0,37,0.00,,,0.00,weatherlink.com 1.10,2013-01-22 19:11:00,
2013-01-22 14:41:00,37.8,14.0,30.28,WNW,295,0.0,5.0,38,0.00,,,0.00,weatherlink.com 1.10,2013-01-22 19:41:00,
2013-01-22 15:11:00,38.2,14.0,30.28,SE,131,0.0,4.0,38,0.00,,,0.00,weatherlink.com 1.10,2013-01-22 20:11:00,
2013-01-22 15:26:00,38.3,15.0,30.29,SSE,150,0.0,5.0,38,0.00,,,0.00,weatherlink.com 1.10,2013-01-22 20:26:00,
2013-01-22 15:41:00,38.6,14.0,30.29,SSE,150,0.0,1.0,37,0.00,,,0.00,weatherlink.com 1.10,2013-01-22 20:41:00,
2013-01-22 15:56:00,38.9,14.0,30.29,East,91,0.0,4.0,37,0.00,,,0.00,weatherlink.com 1.10,2013-01-22 20:56:00,
2013-01-22 16:11:00,39.1,13.0,30.29,NNW,334,1.0,5.0,34,0.00,,,0.00,weatherlink.com 1.10,2013-01-22 21:11:00,
2013-01-22 16:26:00,39.5,12.0,30.28,NW,319,0.0,7.0,32,0.00,,,0.00,weatherlink.com 1.10,2013-01-22 21:26:00,
2013-01-22 16:56:00,38.5,11.0,30.29,NW,323,0.0,4.0,32,0.00,,,0.00,weatherlink.com 1.10,2013-01-22 21:56:00,
2013-01-22 17:26:00,37.2,11.0,30.30,NNW,336,0.0,5.0,34,0.00,,,0.00,weatherlink.com 1.10,2013-01-22 22:26:00,
2013-01-22 18:11:00,34.3,11.0,30.31,NNE,15,0.0,2.0,38,0.00,,,0.00,weatherlink.com 1.10,2013-01-22 23:11:00,
2013-01-22 18:26:00,33.4,11.0,30.32,NNE,15,0.0,1.0,40,0.00,,,0.00,weatherlink.com 1.10,2013-01-22 23:26:00,
2013-01-22 18:41:00,32.5,12.0,30.32,NNE,15,0.0,0.0,43,0.00,,,0.00,weatherlink.com 1.10,2013-01-22 23:41:00,
2013-01-22 19:26:00,31.5,12.0,30.33,NNE,15,0.0,1.0,44,0.00,,,0.00,weatherlink.com 1.10,2013-01-23 00:26:00,
2013-01-22 19:41:00,32.4,12.0,30.33,NNE,15,0.0,1.0,43,0.00,,,0.00,weatherlink.com 1.10,2013-01-23 00:41:00,
2013-01-22 20:11:00,33.2,12.0,30.34,NNW,342,0.0,3.0,41,0.00,,,0.00,weatherlink.com 1.10,2013-01-23 01:11:00,
2013-01-22 20:26:00,33.2,12.0,30.33,NNW,342,0.0,1.0,42,0.00,,,0.00,weatherlink.com 1.10,2013-01-23 01:26:00,
2013-01-22 20:41:00,33.0,12.0,30.34,NNW,333,0.0,2.0,42,0.00,,,0.00,weatherlink.com 1.10,2013-01-23 01:41:00,
2013-01-22 20:56:00,32.9,12.0,30.33,NNW,333,0.0,4.0,42,0.00,,,0.00,weatherlink.com 1.10,2013-01-23 01:56:00,
2013-01-22 21:11:00,32.7,12.0,30.33,NNW,334,0.0,2.0,43,0.00,,,0.00,weatherlink.com 1.10,2013-01-23 02:11:00,
2013-01-22 21:56:00,32.4,13.0,30.33,NNW,334,0.0,0.0,45,0.00,,,0.00,weatherlink.com 1.10,2013-01-23 02:56:00,
2013-01-22 22:11:00,32.4,14.0,30.33,NNW,334,0.0,1.0,47,0.00,,,0.00,weatherlink.com 1.10,2013-01-23 03:11:00,
2013-01-22 22:41:00,32.2,14.0,30.33,NNW,334,0.0,0.0,47,0.00,,,0.00,weatherlink.com 1.10,2013-01-23 03:41:00,
2013-01-22 22:56:00,32.2,13.0,30.33,NNW,334,0.0,0.0,46,0.00,,,0.00,weatherlink.com 1.10,2013-01-23 03:56:00,
2013-01-22 23:11:00,32.2,14.0,30.33,NNW,334,0.0,0.0,48,0.00,,,0.00,weatherlink.com 1.10,2013-01-23 04:11:00,
2013-01-22 23:26:00,32.3,15.0,30.33,NNW,334,0.0,0.0,49,0.00,,,0.00,weatherlink.com 1.10,2013-01-23 04:26:00,
2013-01-22 23:41:00,32.2,16.0,30.33,NNW,334,0.0,0.0,51,0.00,,,0.00,weatherlink.com 1.10,2013-01-23 04:41:00,